Location: Syke, Rochdale
(53.6121°N, 2.1588°W)
Time: 04:57:01
(UTC+02:00)

Amateur Radio Satellites - All Passes

Search period start: 21 August 2017 04:27
Search period end: 22 August 2017 04:27
Location: Syke, Rochdale, 53.6121°N, 2.1588°W

Satellite Date Start Highest point End Downlink Frequencies (MHz)
Time Altitude Azimuth
Oscar 19 21 Aug 04:33:42 04:38:50 60° 292° (WNW) 04:43:57 437.125/150
MOZHAYETS 4 21 Aug 04:57:33 05:01:57 48° 261° (W) 05:06:25
AO-7 21 Aug 05:01:47 05:09:21 36° 95° (E) 05:16:49 .
BUGSAT 1 21 Aug 05:04:27 05:06:29 14° 306° (NW) 05:08:31 437.445
KKS-1 21 Aug 05:10:11 05:14:13 34° 63° (ENE) 05:18:15 437.445
BEESAT 21 Aug 05:12:25 05:16:40 32° 265° (W) 05:20:57 436.000
CUBESAT XI-V 21 Aug 05:16:29 05:21:06 68° 71° (ENE) 05:25:48 437.345
PCSat 21 Aug 05:31:54 05:35:55 20° 8° (N) 05:39:57 145.827
Gurwin Techsat 1B 21 Aug 05:45:55 05:50:24 28° 303° (WNW) 05:54:52 435.225
ITUPSAT 1 21 Aug 05:48:07 05:51:19 18° 272° (W) 05:54:32 437.325
STARS 21 Aug 05:49:08 05:53:08 35° 64° (ENE) 05:57:10 437.465
SO-50 21 Aug 05:49:38 05:53:09 22° 9° (N) 05:56:41 436.795
NO-84 21 Aug 05:50:47 05:53:38 70° 352° (N) 05:56:33 435.350 FM
ITAMSAT 1 21 Aug 05:52:42 05:57:53 66° 103° (ESE) 06:03:02 435.822/435.867
Oscar 19 21 Aug 06:14:30 06:17:12 14° 313° (NW) 06:19:53 437.125/150
YUBILEINY 21 Aug 06:14:51 06:22:15 33° 280° (W) 06:29:37 435.215
AO-85 21 Aug 06:18:35 06:19:39 11° 111° (ESE) 06:20:43 145.980
BEESAT 3 21 Aug 06:31:41 06:34:50 22° 118° (ESE) 06:38:01 437.485
KKS-1 21 Aug 06:46:34 06:50:45 37° 263° (W) 06:54:56 437.445
BEESAT 2 21 Aug 06:46:56 06:48:38 12° 111° (ESE) 06:50:19 435.950
AO-7 21 Aug 06:54:27 07:02:46 71° 298° (WNW) 07:11:00 .
CUBESAT XI-V 21 Aug 06:55:32 06:58:57 20° 271° (W) 07:02:25 437.345
DOVE 4 21 Aug 07:07:48 07:12:06 35° 94° (E) 07:16:09 437.250
XW-2F 21 Aug 07:10:12 07:11:50 12° 87° (E) 07:13:29 145.980 - 146.000
PCSat 21 Aug 07:15:48 07:20:50 36° 33° (NNE) 07:25:51 145.827
STRAND 1 21 Aug 07:24:59 07:29:27 31° 60° (ENE) 07:33:55 437.568
STARS 21 Aug 07:25:28 07:29:30 35° 263° (W) 07:33:33 437.465
NO-84 21 Aug 07:28:14 07:31:08 78° 11° (NNE) 07:34:09 435.350 FM
SO-50 21 Aug 07:30:20 07:34:40 41° 32° (NNE) 07:39:01 436.795
ITAMSAT 1 21 Aug 07:32:45 07:36:59 26° 304° (WNW) 07:41:12 435.822/435.867
KAITUO 1B 21 Aug 07:34:43 07:37:20 18° 90° (E) 07:39:57 145.475/437.950
AO-85 21 Aug 07:55:23 07:59:16 71° 131° (SE) 08:03:14 145.980
FO-29 21 Aug 07:56:10 07:59:58 16° 43° (NE) 08:03:34 435.910
LilacSat-2 21 Aug 07:56:11 07:59:49 37° 97° (E) 08:03:27 437.200
XW-2D 21 Aug 08:00:26 08:04:05 39° 98° (E) 08:07:43 145.860 - 145.880
CUTE-I 21 Aug 08:01:11 08:06:05 36° 96° (E) 08:10:56 437.470
NUDT-PHONESAT 21 Aug 08:06:58 08:10:25 34° 97° (E) 08:13:52 437.300
BEESAT 3 21 Aug 08:08:04 08:12:05 66° 319° (NW) 08:16:08 437.485
XW-2B 21 Aug 08:11:26 08:15:11 49° 99° (E) 08:18:56 145.730 - 145.750
SEEDS 21 Aug 08:18:50 08:19:23 10° 83° (E) 08:19:56 437.485
BEESAT 2 21 Aug 08:21:38 08:25:39 73° 131° (SE) 08:29:44 435.950
XW-2C 21 Aug 08:30:28 08:34:21 79° 106° (ESE) 08:38:12 145.795 - 145.815
HO-68 21 Aug 08:30:37 08:36:38 28° 91° (E) 08:42:37 435.675
XW-2F 21 Aug 08:42:40 08:46:31 82° 286° (WNW) 08:50:21 145.980 - 146.000
DOVE 4 21 Aug 08:45:31 08:49:50 36° 296° (WNW) 08:53:53 437.250
AO-7 21 Aug 08:47:48 08:54:20 27° 321° (NW) 09:00:50 .
PCSat 21 Aug 08:59:13 09:04:38 68° 235° (SW) 09:10:01 145.827
AAUSAT CUBESAT 2 21 Aug 09:02:56 09:05:05 14° 86° (E) 09:07:14 437.432
STRAND 1 21 Aug 09:03:29 09:08:28 51° 260° (W) 09:13:28 437.568
CUTE 1.7 + AOD 2 21 Aug 09:03:55 09:07:58 38° 97° (E) 09:12:00 437.475
NO-84 21 Aug 09:05:40 09:08:22 32° 212° (SSW) 09:11:13 435.350 FM
KAITUO 1B 21 Aug 09:07:56 09:11:39 55° 289° (WNW) 09:15:23 145.475/437.950
UWE-3 21 Aug 09:08:34 09:11:15 16° 89° (E) 09:13:58 435.000/436.395/437.385
XW-2A 21 Aug 09:09:02 09:11:42 21° 93° (E) 09:14:21 145.665 - 145.685
SO-50 21 Aug 09:10:51 09:15:16 50° 233° (SW) 09:19:41 436.795
CUBEBUG 2 21 Aug 09:15:17 09:18:55 28° 94° (E) 09:22:35 437.445
LilacSat-2 21 Aug 09:30:42 09:33:59 27° 296° (WNW) 09:37:16 437.200
XW-2D 21 Aug 09:34:56 09:38:07 25° 297° (WNW) 09:41:18 145.860 - 145.880
AO-85 21 Aug 09:36:35 09:40:01 28° 334° (NNW) 09:43:32 145.980
FO-29 21 Aug 09:36:45 09:43:47 50° 64° (ENE) 09:50:07 435.910
NUDT-PHONESAT 21 Aug 09:41:01 09:44:14 27° 295° (WNW) 09:47:26 437.300
CUTE-I 21 Aug 09:41:12 09:46:16 45° 296° (WNW) 09:51:18 437.470
XW-2B 21 Aug 09:46:10 09:49:06 21° 299° (WNW) 09:52:02 145.730 - 145.750
BEESAT 3 21 Aug 09:47:06 09:50:19 22° 340° (NNW) 09:53:34 437.485
ZACube-1 21 Aug 09:47:47 09:51:09 22° 92° (E) 09:54:33 437.345
SEEDS 21 Aug 09:51:35 09:55:53 72° 103° (ESE) 10:00:08 437.485
UNISAT 6 21 Aug 09:53:04 09:56:30 24° 60° (ENE) 09:59:56 437.425
PRISM 21 Aug 09:57:49 10:00:53 20° 58° (ENE) 10:03:58 437.425
BEESAT 2 21 Aug 10:00:12 10:03:47 29° 333° (NNW) 10:07:23 435.950
XW-2C 21 Aug 10:05:49 10:08:01 15° 303° (WNW) 10:10:13 145.795 - 145.815
AO-73 21 Aug 10:08:40 10:12:28 31° 95° (E) 10:16:19 145.935
HO-68 21 Aug 10:17:56 10:25:07 78° 292° (WNW) 10:32:16 435.675
XW-2F 21 Aug 10:18:24 10:20:01 12° 305° (NW) 10:21:37 145.980 - 146.000
TIGRISAT 21 Aug 10:27:23 10:31:25 41° 67° (ENE) 10:35:27 435.000
AAUSAT CUBESAT 2 21 Aug 10:36:55 10:41:09 85° 286° (WNW) 10:45:20 437.432
CUTE 1.7 + AOD 2 21 Aug 10:39:56 10:43:44 31° 296° (WNW) 10:47:31 437.475
AO-7 21 Aug 10:40:41 10:44:22 14° 348° (NNW) 10:48:05 .
XW-2A 21 Aug 10:41:24 10:44:33 36° 292° (WNW) 10:47:41 145.665 - 145.685
UWE-3 21 Aug 10:43:59 10:48:12 72° 286° (WNW) 10:52:28 435.000/436.395/437.385
PCSat 21 Aug 10:44:16 10:47:05 14° 256° (WSW) 10:49:54 145.827
RS-15 21 Aug 10:51:29 10:58:42 18° 93° (E) 11:05:56 29.354- 29.394
CUBEBUG 2 21 Aug 10:51:46 10:55:40 39° 293° (WNW) 10:59:37 437.445
M-CUBED/EXP-1 PRIME 21 Aug 10:51:57 10:55:38 24° 51° (NE) 10:59:22 437.505
Oscar 11 21 Aug 10:53:29 10:57:49 60° 101° (E) 11:02:07 .
DUCHIFAT 1 21 Aug 11:16:39 11:17:42 11° 50° (NE) 11:18:46 145.980
AO-85 21 Aug 11:18:53 11:21:36 17° 358° (N) 11:24:23 145.980
O/OREOS (USA 219) 21 Aug 11:19:14 11:23:35 52° 113° (ESE) 11:27:57 437.305
FO-29 21 Aug 11:21:49 11:28:55 46° 262° (W) 11:35:21 435.910
CUTE-I 21 Aug 11:23:21 11:25:07 12° 317° (NW) 11:26:53 437.470
ZACube-1 21 Aug 11:23:34 11:27:42 52° 290° (WNW) 11:31:55 437.345
Tancredo 1 21 Aug 11:23:34 11:25:40 18° 149° (SSE) 11:27:46 437.200
BEESAT 3 21 Aug 11:26:29 11:29:11 17° 4° (N) 11:31:54 437.485
Max Valier Satellite 21 Aug 11:26:59 11:30:14 28° 95° (E) 11:33:27 145.860
SEEDS 21 Aug 11:28:08 11:31:06 19° 302° (WNW) 11:34:05 437.485
UNISAT 6 21 Aug 11:28:45 11:32:59 52° 260° (W) 11:37:11 437.425
PRISM 21 Aug 11:31:39 11:35:48 63° 258° (WSW) 11:39:58 437.425
BEESAT 2 21 Aug 11:39:57 11:42:41 17° 356° (N) 11:45:27 435.950
DELFI C3 21 Aug 11:41:30 11:45:25 50° 100° (E) 11:49:17 145.870
AO-73 21 Aug 11:44:51 11:48:46 37° 294° (WNW) 11:52:47 145.935
AIST 2D 21 Aug 11:55:17 11:58:35 41° 69° (ENE) 12:01:55 435.315
NANOSAT C BR1 21 Aug 11:58:51 12:02:17 25° 61° (ENE) 12:05:44 145.865
POLYITAN 1 21 Aug 12:03:26 12:07:04 29° 63° (ENE) 12:10:43 437.675
TIGRISAT 21 Aug 12:04:35 12:08:17 27° 266° (W) 12:11:57 435.000
HO-68 21 Aug 12:06:24 12:11:55 25° 315° (NW) 12:17:26 435.675
AAUSAT CUBESAT 2 21 Aug 12:13:42 12:15:59 14° 305° (NW) 12:18:14 437.432
LO-87 21 Aug 12:17:49 12:19:31 13° 88° (E) 12:21:13 145.935 - 145.965
QB50P2 21 Aug 12:18:10 12:22:08 42° 67° (ENE) 12:26:07 145.880/145.840
EO-79 21 Aug 12:18:51 12:22:47 39° 66° (ENE) 12:26:43 145.935-145.965
EO-88 21 Aug 12:20:30 12:24:12 81° 106° (ESE) 12:27:53 145.990 - 145.960
UWE-3 21 Aug 12:22:10 12:23:58 13° 307° (NW) 12:25:46 435.000/436.395/437.385
M-CUBED/EXP-1 PRIME 21 Aug 12:25:03 12:29:37 71° 251° (WSW) 12:34:19 437.505
AO-7 21 Aug 12:29:49 12:33:50 15° 16° (NNE) 12:37:52 .
Oscar 11 21 Aug 12:30:16 12:33:37 22° 301° (WNW) 12:36:58 .
ISS 21 Aug 12:33:56 12:36:38 24° 151° (SSE) 12:39:20 437.550
Oscar 19 21 Aug 12:41:15 12:44:21 16° 49° (NE) 12:47:26 437.125/150
nSIGHT-1 21 Aug 12:41:56 12:44:44 27° 153° (SSE) 12:47:33 .
DUCHIFAT 1 21 Aug 12:48:26 12:52:33 60° 70° (ENE) 12:56:41 145.980
BUGSAT 1 21 Aug 12:48:59 12:52:09 22° 60° (ENE) 12:55:19 437.445
RS-15 21 Aug 12:56:32 13:08:24 59° 119° (ESE) 13:20:17 29.354- 29.394
Tancredo 1 21 Aug 12:57:36 13:00:26 48° 169° (S) 13:03:16 437.200
O/OREOS (USA 219) 21 Aug 12:59:17 13:03:14 30° 314° (NW) 13:07:13 437.305
AO-85 21 Aug 12:59:52 13:03:16 25° 23° (NNE) 13:06:49 145.980
Max Valier Satellite 21 Aug 13:00:46 13:04:06 32° 294° (WNW) 13:07:25 145.860
BEESAT 3 21 Aug 13:04:22 13:07:55 28° 27° (NNE) 13:11:26 437.485
DELFI C3 21 Aug 13:16:48 13:19:55 22° 299° (WNW) 13:23:00 145.870
BEESAT 2 21 Aug 13:18:28 13:21:44 22° 20° (NNE) 13:25:00 435.950
AIST 2D 21 Aug 13:29:24 13:31:59 19° 268° (W) 13:34:36 435.315
ESTCUBE 1 21 Aug 13:31:38 13:36:05 49° 100° (E) 13:40:30 437.505/2401.250
NANOSAT C BR1 21 Aug 13:33:45 13:37:48 47° 260° (W) 13:41:52 145.865
VELOX 1 21 Aug 13:38:31 13:41:11 15° 88° (E) 13:43:50 145.980
POLYITAN 1 21 Aug 13:38:50 13:42:45 39° 262° (W) 13:46:43 437.675
SPROUT 21 Aug 13:44:13 13:47:26 20° 91° (E) 13:50:37 437.525
LO-87 21 Aug 13:49:51 13:53:23 67° 288° (WNW) 13:56:54 145.935 - 145.965
Gurwin Techsat 1B 21 Aug 13:53:58 13:58:45 35° 61° (ENE) 14:03:34 435.225
QB50P2 21 Aug 13:54:29 13:58:04 27° 266° (W) 14:01:40 145.880/145.840
EO-79 21 Aug 13:55:00 13:58:39 28° 266° (W) 14:02:20 145.935-145.965
EO-88 21 Aug 13:55:27 13:57:21 14° 303° (WNW) 13:59:15 145.990 - 145.960
M-CUBED/EXP-1 PRIME 21 Aug 14:03:00 14:04:50 12° 270° (W) 14:06:42 437.505
ISS 21 Aug 14:09:31 14:12:44 55° 171° (S) 14:15:57 437.550
AO-7 21 Aug 14:17:11 14:24:04 30° 42° (NE) 14:30:56 .
nSIGHT-1 21 Aug 14:17:33 14:20:47 58° 173° (S) 14:24:00 .
Oscar 19 21 Aug 14:17:42 14:22:49 70° 70° (ENE) 14:28:01 437.125/150
BUGSAT 1 21 Aug 14:23:16 14:27:16 52° 260° (W) 14:31:14 437.445
DUCHIFAT 1 21 Aug 14:25:37 14:28:36 19° 270° (W) 14:31:36 145.980
Tancredo 1 21 Aug 14:32:35 14:35:27 53° 187° (S) 14:38:18 437.200
50 SAT 21 Aug 14:36:05 14:38:32 18° 92° (E) 14:40:57 437.505
AO-85 21 Aug 14:40:02 14:44:13 79° 44° (NE) 14:48:41 145.980
BEESAT 3 21 Aug 14:41:50 14:45:52 73° 230° (SW) 14:49:50 437.485
O/OREOS (USA 219) 21 Aug 14:43:26 14:44:11 10° 339° (NNW) 14:44:55 437.305
UKube-1 21 Aug 14:53:08 14:56:01 17° 89° (E) 14:58:52 .
BEESAT 2 21 Aug 14:56:06 15:00:11 67° 42° (NE) 15:04:13 435.950
RS-15 21 Aug 15:08:37 15:20:59 69° 327° (NNW) 15:33:13 29.354- 29.394
ESTCUBE 1 21 Aug 15:08:50 15:12:41 27° 299° (WNW) 15:16:31 437.505/2401.250
VELOX 1 21 Aug 15:13:46 15:18:13 81° 289° (WNW) 15:22:38 145.980
DX 1 21 Aug 15:14:36 15:18:40 37° 97° (E) 15:22:42 434.975-435.025
SPROUT 21 Aug 15:19:30 15:23:41 56° 290° (WNW) 15:27:50 437.525
Gurwin Techsat 1B 21 Aug 15:33:29 15:38:37 47° 261° (W) 15:43:46 435.225
YUBILEINY 21 Aug 15:33:55 15:39:20 18° 70° (ENE) 15:44:43 435.215
ITAMSAT 1 21 Aug 15:38:24 15:43:08 36° 61° (ENE) 15:47:51 435.822/435.867
ISS 21 Aug 15:45:50 15:49:03 54° 190° (S) 15:52:15 437.550
nSIGHT-1 21 Aug 15:53:48 15:56:59 50° 193° (SSW) 16:00:09 .
Oscar 19 21 Aug 15:58:40 16:02:40 22° 270° (W) 16:06:41 437.125/150
ITUPSAT 1 21 Aug 16:03:45 16:05:49 13° 85° (E) 16:07:54 437.325
AO-7 21 Aug 16:07:28 16:15:51 81° 65° (ENE) 16:24:15 .
Tancredo 1 21 Aug 16:07:55 16:10:17 22° 207° (SSW) 16:12:38 437.200
50 SAT 21 Aug 16:08:11 16:11:24 41° 291° (WNW) 16:14:35 437.505
AO-85 21 Aug 16:21:05 16:24:14 20° 243° (WSW) 16:27:30 145.980
BEESAT 3 21 Aug 16:21:07 16:22:43 12° 249° (WSW) 16:24:20 437.485
UKube-1 21 Aug 16:28:12 16:32:32 70° 289° (WNW) 16:36:49 .
BEESAT 2 21 Aug 16:34:23 16:37:35 22° 242° (WSW) 16:40:45 435.950
DOVE 4 21 Aug 16:43:25 16:46:34 16° 53° (NE) 16:49:39 437.250
MOZHAYETS 4 21 Aug 16:45:59 16:49:52 26° 92° (E) 16:53:43
DX 1 21 Aug 16:50:54 16:54:49 33° 297° (WNW) 16:58:43 434.975-435.025
VELOX 1 21 Aug 16:51:29 16:54:00 15° 307° (NW) 16:56:30 145.980
SPROUT 21 Aug 16:57:51 16:58:43 11° 310° (NW) 16:59:34 437.525
BEESAT 21 Aug 17:05:10 17:09:41 40° 98° (E) 17:14:10 436.000
CUBESAT XI-V 21 Aug 17:08:34 17:10:03 11° 83° (E) 17:11:32 437.345
ITAMSAT 1 21 Aug 17:17:34 17:22:33 44° 261° (W) 17:27:32 435.822/435.867
ISS 21 Aug 17:22:29 17:25:08 22° 210° (SSW) 17:27:45 437.550
HO-68 21 Aug 17:22:49 17:26:31 15° 33° (NNE) 17:30:13 435.675
RS-15 21 Aug 17:23:51 17:35:48 50° 358° (N) 17:47:25 29.354- 29.394
YUBILEINY 21 Aug 17:25:47 17:34:27 68° 94° (E) 17:43:07 435.215
nSIGHT-1 21 Aug 17:30:29 17:32:55 19° 212° (SSW) 17:35:19 .
ITUPSAT 1 21 Aug 17:39:41 17:44:29 76° 104° (ESE) 17:49:17 437.325
XW-2C 21 Aug 17:45:41 17:47:36 14° 56° (ENE) 17:49:33 145.795 - 145.815
CUTE-I 21 Aug 17:51:07 17:55:14 23° 54° (NE) 17:59:21 437.470
XW-2F 21 Aug 17:56:56 17:59:18 16° 58° (ENE) 18:01:41 145.980 - 146.000
AO-7 21 Aug 18:02:19 18:09:30 31° 268° (W) 18:16:43 .
O/OREOS (USA 219) 21 Aug 18:04:56 18:07:29 15° 31° (NNE) 18:10:02 437.305
UKube-1 21 Aug 18:05:47 18:07:48 13° 309° (NW) 18:09:49 .
DOVE 4 21 Aug 18:18:15 18:23:30 73° 72° (ENE) 18:28:35 437.250
KAITUO 1B 21 Aug 18:20:40 18:23:33 21° 62° (ENE) 18:26:28 145.475/437.950
MOZHAYETS 4 21 Aug 18:22:48 18:27:17 51° 292° (WNW) 18:31:46
CUTE 1.7 + AOD 2 21 Aug 18:30:14 18:31:29 11° 51° (NE) 18:32:45 437.475
KKS-1 21 Aug 18:30:50 18:34:35 26° 94° (E) 18:38:19 437.445
BEESAT 21 Aug 18:43:06 18:47:25 35° 298° (WNW) 18:51:44 436.000
CUBESAT XI-V 21 Aug 18:43:36 18:48:20 69° 103° (ESE) 18:53:02 437.345
LilacSat-2 21 Aug 18:43:52 18:47:30 46° 69° (ENE) 18:51:11 437.200
XW-2D 21 Aug 18:47:27 18:51:04 48° 70° (ENE) 18:54:46 145.860 - 145.880
NUDT-PHONESAT 21 Aug 18:51:58 18:55:25 39° 68° (ENE) 18:58:54 437.300
XW-2B 21 Aug 18:58:25 19:02:08 60° 72° (ENE) 19:05:54 145.730 - 145.750
HO-68 21 Aug 19:05:55 19:12:32 42° 57° (ENE) 19:19:09 435.675
STARS 21 Aug 19:08:00 19:11:43 27° 94° (E) 19:15:25 437.465
SEEDS 21 Aug 19:15:12 19:18:01 18° 57° (ENE) 19:20:52 437.485
XW-2C 21 Aug 19:17:29 19:21:15 85° 257° (WSW) 19:25:04 145.795 - 145.815
ITUPSAT 1 21 Aug 19:18:17 19:21:51 21° 305° (NW) 19:25:24 437.325
YUBILEINY 21 Aug 19:23:51 19:31:54 39° 298° (WNW) 19:40:00 435.215
XW-2F 21 Aug 19:29:16 19:32:59 68° 257° (WSW) 19:36:47 145.980 - 146.000
CUTE-I 21 Aug 19:29:23 19:34:45 81° 255° (WSW) 19:40:09 437.470
RS-15 21 Aug 19:38:27 19:50:44 65° 31° (NNE) 20:02:26 29.354- 29.394
O/OREOS (USA 219) 21 Aug 19:43:31 19:47:58 52° 54° (NE) 19:52:25 437.305
XW-2A 21 Aug 19:46:23 19:48:57 21° 63° (ENE) 19:51:32 145.665 - 145.685
KAITUO 1B 21 Aug 19:53:44 19:57:19 45° 261° (W) 20:00:58 145.475/437.950
DOVE 4 21 Aug 19:57:39 20:01:38 22° 271° (W) 20:05:35 437.250
AAUSAT CUBESAT 2 21 Aug 19:58:35 20:01:47 22° 60° (ENE) 20:05:00 437.432
CUTE 1.7 + AOD 2 21 Aug 20:02:18 20:06:28 60° 71° (ENE) 20:10:43 437.475
MOZHAYETS 4 21 Aug 20:02:21 20:03:28 11° 312° (NW) 20:04:34
KKS-1 21 Aug 20:07:05 20:11:22 47° 293° (WNW) 20:15:36 437.445
UWE-3 21 Aug 20:11:22 20:14:56 28° 63° (ENE) 20:18:29 435.000/436.395/437.385
LilacSat-2 21 Aug 20:19:08 20:22:01 20° 269° (W) 20:24:56 437.200
CUBEBUG 2 21 Aug 20:19:15 20:23:20 50° 69° (ENE) 20:27:23 437.445
Oscar 11 21 Aug 20:20:02 20:22:50 17° 56° (NE) 20:25:38 .
CUBESAT XI-V 21 Aug 20:21:40 20:25:16 22° 303° (WNW) 20:28:52 437.345
XW-2D 21 Aug 20:22:45 20:25:31 19° 269° (W) 20:28:20 145.860 - 145.880
NUDT-PHONESAT 21 Aug 20:26:31 20:29:27 22° 267° (W) 20:32:25 437.300
XW-2B 21 Aug 20:34:20 20:36:42 16° 271° (W) 20:39:06 145.730 - 145.750
STARS 21 Aug 20:44:04 20:48:15 45° 293° (WNW) 20:52:24 437.465
SEEDS 21 Aug 20:49:01 20:53:13 76° 256° (WSW) 20:57:30 437.485
ZACube-1 21 Aug 20:49:30 20:53:18 36° 66° (ENE) 20:57:07 437.345
HO-68 21 Aug 20:53:07 21:00:08 57° 258° (WSW) 21:07:12 435.675
XW-2C 21 Aug 20:55:36 20:56:06 10° 275° (W) 20:56:37 145.795 - 145.815
DELFI C3 21 Aug 21:01:01 21:02:24 12° 53° (NE) 21:03:47 145.870
STRAND 1 21 Aug 21:07:16 21:11:55 34° 96° (E) 21:16:32 437.568
AO-73 21 Aug 21:10:05 21:14:05 50° 69° (ENE) 21:18:07 145.935
CUTE-I 21 Aug 21:12:34 21:15:40 15° 275° (W) 21:18:48 437.470
XW-2A 21 Aug 21:18:25 21:21:31 36° 262° (W) 21:24:39 145.665 - 145.685
O/OREOS (USA 219) 21 Aug 21:23:20 21:27:09 27° 254° (WSW) 21:30:57 437.305
YUBILEINY 21 Aug 21:28:05 21:32:01 13° 328° (NNW) 21:35:58 435.215
AAUSAT CUBESAT 2 21 Aug 21:32:48 21:36:55 57° 259° (W) 21:41:04 437.432
EO-88 21 Aug 21:32:50 21:34:26 13° 56° (NE) 21:36:02 145.990 - 145.960
CUTE 1.7 + AOD 2 21 Aug 21:39:37 21:42:42 19° 271° (W) 21:45:49 437.475
UWE-3 21 Aug 21:47:22 21:51:18 40° 262° (W) 21:55:14 435.000/436.395/437.385
RS-15 21 Aug 21:51:35 22:03:27 63° 239° (WSW) 22:14:41 29.354- 29.394
Oscar 11 21 Aug 21:54:07 21:58:26 82° 256° (WSW) 22:02:47 .
CUBEBUG 2 21 Aug 21:56:55 22:00:15 22° 268° (W) 22:03:32 437.445
Max Valier Satellite 21 Aug 22:11:43 22:15:01 32° 66° (ENE) 22:18:19 145.860
FO-29 21 Aug 22:25:24 22:29:27 19° 85° (E) 22:33:15 435.910
ZACube-1 21 Aug 22:26:01 22:29:39 29° 265° (W) 22:33:21 437.345
SEEDS 21 Aug 22:28:38 22:29:41 11° 276° (W) 22:30:45 437.485
DELFI C3 21 Aug 22:32:27 22:36:26 69° 72° (ENE) 22:40:26 145.870
STRAND 1 21 Aug 22:46:23 22:51:14 45° 295° (WNW) 22:56:03 437.568
HO-68 21 Aug 22:46:23 22:49:32 13° 280° (W) 22:52:40 435.675
AO-73 21 Aug 22:47:25 22:50:37 21° 269° (W) 22:53:50 145.935
LO-87 21 Aug 22:59:48 23:02:02 16° 59° (ENE) 23:04:17 145.935 - 145.965
ESTCUBE 1 21 Aug 23:02:22 23:05:20 18° 55° (NE) 23:08:20 437.505/2401.250
EO-88 21 Aug 23:03:52 23:07:31 89° 251° (WSW) 23:11:12 145.990 - 145.960
PRISM 21 Aug 23:08:12 23:09:49 12° 86° (E) 23:11:25 437.425
UNISAT 6 21 Aug 23:14:02 23:17:17 20° 91° (E) 23:20:32 437.425
Oscar 11 21 Aug 23:33:35 23:35:18 12° 275° (W) 23:37:01 .
SO-50 21 Aug 23:34:34 23:35:22 10° 109° (ESE) 23:36:11 436.795
Max Valier Satellite 21 Aug 23:45:46 23:48:54 26° 266° (W) 23:52:03 145.860
PCSat 21 Aug 23:47:34 23:52:10 29° 113° (ESE) 23:56:47 145.827
TIGRISAT 21 Aug 23:48:28 23:52:28 37° 97° (E) 23:56:31 435.000
RS-15 22 Aug 00:05:45 00:13:12 19° 265° (W) 00:20:28 29.354- 29.394
DELFI C3 22 Aug 00:09:12 00:11:39 16° 272° (W) 00:14:07 145.870
FO-29 22 Aug 00:09:37 00:15:28 80° 287° (WNW) 00:20:46 435.910
STRAND 1 22 Aug 00:27:57 00:29:15 11° 316° (NW) 00:30:34 437.568
LO-87 22 Aug 00:31:32 00:35:05 61° 258° (WSW) 00:38:39 145.935 - 145.965
ESTCUBE 1 22 Aug 00:37:02 00:41:34 87° 255° (WSW) 00:46:09 437.505/2401.250
VELOX 1 22 Aug 00:41:10 00:45:04 31° 62° (ENE) 00:48:59 145.980
EO-88 22 Aug 00:41:24 00:41:48 10° 274° (W) 00:42:12 145.990 - 145.960
PRISM 22 Aug 00:41:35 00:45:46 86° 103° (ESE) 00:49:54 437.425
DX 1 22 Aug 00:42:32 00:44:44 14° 51° (NE) 00:46:55 434.975-435.025
SPROUT 22 Aug 00:43:12 00:47:03 35° 65° (ENE) 00:50:56 437.525
AIST 2D 22 Aug 00:47:11 00:50:02 22° 93° (E) 00:52:51 435.315
UNISAT 6 22 Aug 00:50:07 00:54:21 58° 290° (WNW) 00:58:38 437.425
SO-50 22 Aug 01:10:29 01:14:54 57° 128° (SE) 01:19:21 436.795
NANOSAT C BR1 22 Aug 01:11:59 01:14:54 18° 90° (E) 01:17:48 145.865
50 SAT 22 Aug 01:12:58 01:15:34 20° 62° (ENE) 01:18:10 437.505
POLYITAN 1 22 Aug 01:17:09 01:20:27 22° 92° (E) 01:23:44 437.675
TIGRISAT 22 Aug 01:25:19 01:29:08 32° 296° (WNW) 01:32:58 435.000
PCSat 22 Aug 01:29:47 01:35:12 68° 314° (NW) 01:40:40 145.827
YUBILEINY 22 Aug 01:31:34 01:36:40 16° 38° (NE) 01:41:44 435.215
QB50P2 22 Aug 01:32:02 01:35:50 31° 95° (E) 01:39:37 145.880/145.840
M-CUBED/EXP-1 PRIME 22 Aug 01:32:14 01:36:16 33° 101° (E) 01:40:04 437.505
EO-79 22 Aug 01:32:30 01:36:13 29° 95° (E) 01:39:54 145.935-145.965
UKube-1 22 Aug 01:53:04 01:56:57 33° 63° (ENE) 02:00:51 .
FO-29 22 Aug 01:55:41 01:59:40 19° 312° (NW) 02:03:24 435.910
BUGSAT 1 22 Aug 01:59:27 02:01:41 14° 88° (E) 02:03:54 437.445
DUCHIFAT 1 22 Aug 02:01:23 02:05:23 44° 99° (E) 02:09:24 145.980
DX 1 22 Aug 02:15:49 02:20:11 72° 71° (ENE) 02:24:34 434.975-435.025
ESTCUBE 1 22 Aug 02:16:48 02:19:05 14° 274° (W) 02:21:23 437.505/2401.250
VELOX 1 22 Aug 02:17:10 02:21:25 42° 262° (W) 02:25:40 145.980
PRISM 22 Aug 02:18:00 02:20:29 16° 305° (NW) 02:22:57 437.425
SPROUT 22 Aug 02:19:08 02:22:59 33° 264° (W) 02:26:52 437.525
AIST 2D 22 Aug 02:20:02 02:23:21 37° 292° (WNW) 02:26:41 435.315
MOZHAYETS 4 22 Aug 02:21:10 02:21:57 10° 47° (NE) 02:22:44
Oscar 19 22 Aug 02:23:51 02:26:53 15° 86° (E) 02:29:54 437.125/150
UNISAT 6 22 Aug 02:29:08 02:30:14 11° 310° (NW) 02:31:20 437.425
BEESAT 22 Aug 02:41:54 02:45:10 19° 54° (NE) 02:48:26 436.000
50 SAT 22 Aug 02:44:47 02:48:02 40° 261° (W) 02:51:17 437.505
NANOSAT C BR1 22 Aug 02:46:52 02:51:01 63° 289° (WNW) 02:55:10 145.865
SO-50 22 Aug 02:51:23 02:55:36 37° 330° (NNW) 02:59:50 436.795
POLYITAN 1 22 Aug 02:52:26 02:56:31 52° 291° (WNW) 03:00:37 437.675
M-CUBED/EXP-1 PRIME 22 Aug 03:06:32 03:10:45 40° 302° (WNW) 03:14:43 437.505
QB50P2 22 Aug 03:07:49 03:11:40 36° 295° (WNW) 03:15:32 145.880/145.840
EO-79 22 Aug 03:08:10 03:12:03 38° 294° (WNW) 03:15:57 145.935-145.965
PCSat 22 Aug 03:15:00 03:19:32 26° 338° (NNW) 03:24:06 145.827
ITUPSAT 1 22 Aug 03:15:39 03:19:49 31° 61° (ENE) 03:24:00 437.325
YUBILEINY 22 Aug 03:27:49 03:36:14 49° 67° (ENE) 03:44:35 435.215
UKube-1 22 Aug 03:28:56 03:32:57 36° 263° (W) 03:36:59 .
BUGSAT 1 22 Aug 03:33:32 03:37:33 75° 287° (WNW) 03:41:34 437.445
DUCHIFAT 1 22 Aug 03:37:24 03:40:54 26° 298° (WNW) 03:44:24 145.980
NO-84 22 Aug 03:40:28 03:43:06 33° 148° (SSE) 03:45:42 435.350 FM
Gurwin Techsat 1B 22 Aug 03:42:46 03:47:50 43° 98° (E) 03:52:53 435.225
MOZHAYETS 4 22 Aug 03:53:42 03:58:06 50° 68° (ENE) 04:02:32
DX 1 22 Aug 03:53:57 03:56:52 17° 271° (W) 03:59:47 434.975-435.025
Oscar 19 22 Aug 04:01:47 04:07:02 82° 105° (ESE) 04:12:16 437.125/150
KKS-1 22 Aug 04:02:05 04:03:15 11° 48° (NE) 04:04:24 437.445
AO-7 22 Aug 04:03:09 04:08:16 17° 83° (E) 04:13:20 .
CUBESAT XI-V 22 Aug 04:16:50 04:20:34 24° 59° (ENE) 04:24:20 437.345
